Weather History for Milford, UT

Change the Weather History Date:

Monday, February 18, 2013

  Actual Average Record
Temperature  
Mean Temperature 30 °F -  
Max Temperature 46 °F 43 °F 61 °F (2014)
Min Temperature 15 °F 22 °F 9 °F (2008)
Degree Days  
Heating Degree Days 34    
Moisture  
Dew Point 14 °F    
Average Humidity 59    
Maximum Humidity 84    
Minimum Humidity 9    
Precipitation  
Precipitation 0.00 in - - ()
Sea Level Pressure  
Sea Level Pressure 30.08 in    
Wind  
Wind Speed 6 mph (SW)    
Max Wind Speed 10 mph    
Max Gust Speed -    
Visibility 10 miles    
Events      
Averages and records for this station are not official NWS values.
T = Trace of Precipitation, MM = Missing Value Source: NWS Daily Summary

Daily Weather History Graph

Daily Weather History Graph

Search for Another Location

Airport:

Trip Planner

Search our weather history database for the weather conditions in past years. The results will help you decide how hot, cold, wet, or windy it might be!

Date:

Astronomy

Feb. 18, 2013 Rise Set
Actual Time 7:18 AM MST 6:13 PM MST
Civil Twilight 6:51 AM MST 6:40 PM MST
Nautical Twilight 6:20 AM MST 7:11 PM MST
Astronomical Twilight 5:50 AM MST 7:42 PM MST
Moon 12:04 PM MST (2/18) 1:59 AM MST (2/18)
Length of Visible Light 11h 49m
Length of Day
10h 55m
First Quarter, 59% of the Moon is Illuminated
Feb 18
First Quarter
Feb 25
Full
Mar 4
Last Quarter
Mar 11
New
Mar 19
First Quarter

Hourly Weather History & Observations

Time (MST) Temp. Windchill Dew Point Humidity Pressure Visibility Wind Dir Wind Speed Gust Speed Precip Events Conditions
12:52 AM 25.0 °F 14.8 °F 18.0 °F 75% 30.07 in 10.0 mi NNW 10.4 mph - N/A   Clear
1:52 AM 23.0 °F 13.1 °F 17.1 °F 78% 30.09 in 10.0 mi NW 9.2 mph - N/A   Clear
2:52 AM 21.9 °F 15.7 °F 16.0 °F 78% 30.10 in 10.0 mi NNW 4.6 mph - N/A   Clear
3:52 AM 18.0 °F 11.1 °F 14.0 °F 84% 30.12 in 10.0 mi SSW 4.6 mph - N/A   Clear
4:52 AM 18.0 °F 12.7 °F 12.9 °F 81% 30.12 in 10.0 mi SW 3.5 mph - N/A   Clear
5:52 AM 18.0 °F 11.1 °F 12.9 °F 81% 30.17 in 10.0 mi South 4.6 mph - N/A   Clear
6:52 AM 15.1 °F 9.4 °F 10.9 °F 84% 30.19 in 10.0 mi SW 3.5 mph - N/A   Clear
7:52 AM 16.0 °F 10.4 °F 12.0 °F 84% 30.20 in 10.0 mi South 3.5 mph - N/A   Clear
8:52 AM 21.9 °F 17.2 °F 17.1 °F 82% 30.18 in 10.0 mi SSE 3.5 mph - N/A   Clear
9:52 AM 30.9 °F - 16.0 °F 54% 30.16 in 10.0 mi Calm Calm - N/A   Clear
10:52 AM 35.1 °F 31.0 °F 14.0 °F 42% 30.15 in 10.0 mi Variable 4.6 mph - N/A   Clear
11:52 AM 37.0 °F - 12.0 °F 36% 30.14 in 10.0 mi Calm Calm - N/A   Clear
12:52 PM 39.0 °F - 9.0 °F 29% 30.10 in 10.0 mi Calm Calm - N/A   Clear
1:52 PM 42.1 °F 39.2 °F 5.0 °F 22% 30.06 in 10.0 mi Variable 4.6 mph - N/A   Clear
2:52 PM 45.0 °F 40.6 °F 7.0 °F 21% 30.02 in 10.0 mi South 8.1 mph - N/A   Clear
3:52 PM 46.0 °F 43.9 °F 5.0 °F 19% 30.01 in 10.0 mi South 4.6 mph - N/A   Clear
4:52 PM 46.0 °F 44.8 °F 6.1 °F 20% 29.99 in 10.0 mi Variable 3.5 mph - N/A   Clear
5:52 PM 39.0 °F 32.3 °F 19.9 °F 46% 29.99 in 10.0 mi North 10.4 mph - N/A   Clear
6:52 PM 32.0 °F 23.6 °F 21.9 °F 66% 30.02 in 10.0 mi North 10.4 mph - N/A   Clear
7:52 PM 28.0 °F 21.7 °F 21.0 °F 75% 30.04 in 10.0 mi NNE 5.8 mph - N/A   Clear
8:52 PM 26.1 °F - 19.9 °F 78% 30.02 in 10.0 mi Calm Calm - N/A   Clear
9:52 PM 28.0 °F - 19.9 °F 72% 29.97 in 10.0 mi Calm Calm - N/A   Clear
10:52 PM 25.0 °F 19.3 °F 19.9 °F 81% 29.96 in 10.0 mi WSW 4.6 mph - N/A   Clear
11:52 PM 25.0 °F 17.1 °F 19.9 °F 81% 29.94 in 10.0 mi SSW 6.9 mph - N/A   Clear